,,PA_Meas_PMT16A,,PR_Meas_QMR101_102,,RH_Meas_QMH101,,SR_Meas_QMS101,,TA_Meas_QMH101,,GenWind,,GenWind,
time,status,PA,status,PR,status,RH,status,SR,status,TA,status,DirAvg,status,SpdAvg,
2012-06-30, 00:00:04,VALID,917.319,VALID,0,VALID,96.8631,VALID,0,VALID,20.2309,VALID,37,VALID,0,
2012-06-30, 00:01:04,VALID,917.282,VALID,0,VALID,96.8403,VALID,0,VALID,20.2114,VALID,37,VALID,0,
2012-06-30, 00:02:04,VALID,917.239,VALID,0,VALID,96.825,VALID,0,VALID,20.1919,VALID,37,VALID,0,
2012-06-30, 00:03:04,VALID,917.222,VALID,0,VALID,96.8707,VALID,0,VALID,20.1919,VALID,37,VALID,0,
2012-06-30, 00:04:04,VALID,917.204,VALID,0,VALID,96.8784,VALID,0,VALID,20.1919,VALID,37,VALID,0,
2012-06-30, 00:05:04,VALID,917.179,VALID,0,VALID,96.9241,VALID,0,VALID,20.2114,VALID,37,VALID,0,
2012-06-30, 00:06:04,VALID,917.171,VALID,0,VALID,96.9165,VALID,0,VALID,20.2114,VALID,37,VALID,0,
2012-06-30, 00:07:04,VALID,917.186,VALID,0,VALID,96.9012,VALID,0,VALID,20.1724,VALID,37,VALID,0,
2012-06-30, 00:08:04,VALID,917.185,VALID,0,VALID,96.8936,VALID,0,VALID,20.1724,VALID,37,VALID,0,
2012-06-30, 00:09:04,VALID,917.2,VALID,0,VALID,96.9165,VALID,0.107441,VALID,20.1529,VALID,37,VALID,0,
2012-06-30, 00:10:04,VALID,917.2,VALID,0,VALID,96.947,VALID,0,VALID,20.1334,VALID,36,VALID,0,
2012-06-30, 00:11:04,VALID,917.183,VALID,0,VALID,96.9546,VALID,0,VALID,20.1334,VALID,37,VALID,0,
2012-06-30, 00:12:04,VALID,917.184,VALID,0,VALID,96.9851,VALID,0,VALID,20.1529,VALID,36,VALID,0,
2012-06-30, 00:13:04,VALID,917.157,VALID,0,VALID,97.0156,VALID,0.107441,VALID,20.1529,VALID,36,VALID,0,
2012-06-30, 00:14:04,VALID,917.113,VALID,0,VALID,96.9698,VALID,0.107441,VALID,20.1529,VALID,37,VALID,0,
2012-06-30, 00:15:04,VALID,917.097,VALID,0,VALID,97.008,VALID,0,VALID,20.1544,VALID,36,VALID,0,
2012-06-30, 00:16:04,VALID,917.093,VALID,0,VALID,97.0003,VALID,0,VALID,20.1334,VALID,37,VALID,0,
2012-06-30, 00:17:04,VALID,917.042,VALID,0,VALID,96.9851,VALID,0,VALID,20.1334,VALID,37,VALID,0,
2012-06-30, 00:18:04,VALID,917.025,VALID,0,VALID,96.9622,VALID,0,VALID,20.1139,VALID,37,VALID,0,
2012-06-30, 00:19:04,VALID,916.986,VALID,0,VALID,96.9851,VALID,0,VALID,20.0944,VALID,36,VALID,0,
2012-06-30, 00:20:04,VALID,916.963,VALID,0,VALID,97.0156,VALID,0,VALID,20.0749,VALID,37,VALID,0,
2012-06-30, 00:21:04,VALID,916.958,VALID,0,VALID,97.0156,VALID,0,VALID,20.0944,VALID,37,VALID,0,
2012-06-30, 00:22:04,VALID,916.925,VALID,0,VALID,97.0308,VALID,0.107441,VALID,20.0749,VALID,37,VALID,0,
2012-06-30, 00:23:04,VALID,916.914,VALID,0,VALID,97.0461,VALID,0,VALID,20.0749,VALID,36,VALID,0,
2012-06-30, 00:24:04,VALID,916.91,VALID,0,VALID,97.0156,VALID,0,VALID,20.0764,VALID,37,VALID,0,
2012-06-30, 00:25:04,VALID,916.924,VALID,0,VALID,97.0232,VALID,0,VALID,20.0569,VALID,37,VALID,0,
2012-06-30, 00:26:04,VALID,916.883,VALID,0,VALID,97.0461,VALID,0,VALID,20.0569,VALID,37,VALID,0,
2012-06-30, 00:27:04,VALID,916.916,VALID,0,VALID,97.0766,VALID,0,VALID,20.0553,VALID,37,VALID,0,
2012-06-30, 00:28:04,VALID,916.906,VALID,0,VALID,97.1071,VALID,0,VALID,20.0959,VALID,37,VALID,0,
2012-06-30, 00:29:04,VALID,916.906,VALID,0,VALID,97.1071,VALID,0,VALID,20.1154,VALID,37,VALID,0,
2012-06-30, 00:30:04,VALID,916.947,VALID,0,VALID,97.1299,VALID,0,VALID,20.1349,VALID,37,VALID,0,
2012-06-30, 00:31:04,VALID,916.94,VALID,0,VALID,97.1223,VALID,0,VALID,20.1739,VALID,36,VALID,0,
2012-06-30, 00:32:04,VALID,916.951,VALID,0,VALID,97.1071,VALID,0,VALID,20.1739,VALID,37,VALID,0,
2012-06-30, 00:33:04,VALID,916.927,VALID,0,VALID,97.1071,VALID,0,VALID,20.1544,VALID,37,VALID,0,
2012-06-30, 00:34:04,VALID,916.916,VALID,0,VALID,97.1071,VALID,0,VALID,20.1544,VALID,37,VALID,0,
2012-06-30, 00:35:04,VALID,916.946,VALID,0,VALID,97.0537,VALID,0,VALID,20.1334,VALID,36,VALID,0,
2012-06-30, 00:36:04,VALID,916.928,VALID,0,VALID,97.0385,VALID,0,VALID,20.1349,VALID,37,VALID,0,
2012-06-30, 00:37:04,VALID,916.931,VALID,0,VALID,97.0766,VALID,0,VALID,20.1334,VALID,36,VALID,0,
2012-06-30, 00:38:04,VALID,916.897,VALID,0,VALID,97.1147,VALID,0,VALID,20.1529,VALID,36,VALID,0,
2012-06-30, 00:39:04,VALID,916.881,VALID,0,VALID,97.0994,VALID,0,VALID,20.1934,VALID,36,VALID,0,
2012-06-30, 00:40:04,VALID,916.834,VALID,0,VALID,97.0537,VALID,0,VALID,20.1934,VALID,36,VALID,0,
2012-06-30, 00:41:04,VALID,916.783,VALID,0,VALID,97.0156,VALID,0,VALID,20.1739,VALID,37,VALID,0,
2012-06-30, 00:42:04,VALID,916.764,VALID,0,VALID,97.0613,VALID,0,VALID,20.1544,VALID,37,VALID,0,
2012-06-30, 00:43:04,VALID,916.716,VALID,0,VALID,96.9927,VALID,0,VALID,20.1544,VALID,36,VALID,0,
2012-06-30, 00:44:04,VALID,916.715,VALID,0,VALID,97.008,VALID,0,VALID,20.1154,VALID,37,VALID,0,
2012-06-30, 00:45:04,VALID,916.713,VALID,0,VALID,97.008,VALID,0,VALID,20.1139,VALID,36,VALID,0,
2012-06-30, 00:46:04,VALID,916.722,VALID,0,VALID,96.9851,VALID,0,VALID,20.0764,VALID,36,VALID,0,
2012-06-30, 00:47:04,VALID,916.736,VALID,0,VALID,97.008,VALID,0,VALID,20.0764,VALID,11,VALID,0,
2012-06-30, 00:48:04,VALID,916.736,VALID,0,VALID,97.0308,VALID,0,VALID,20.0569,VALID,11,VALID,0,
2012-06-30, 00:49:04,VALID,916.764,VALID,0,VALID,97.069,VALID,0,VALID,20.0569,VALID,11,VALID,0,
2012-06-30, 00:50:04,VALID,916.774,VALID,0,VALID,97.0994,VALID,0,VALID,20.0764,VALID,11,VALID,0,
2012-06-30, 00:51:04,VALID,916.808,VALID,0,VALID,97.0842,VALID,0,VALID,20.0569,VALID,11,VALID,0,
2012-06-30, 00:52:04,VALID,916.783,VALID,0,VALID,97.0994,VALID,0,VALID,20.0569,VALID,11,VALID,0,
2012-06-30, 00:53:04,VALID,916.78,VALID,0,VALID,97.1147,VALID,0,VALID,20.0358,VALID,11,VALID,0,
2012-06-30, 00:54:04,VALID,916.772,VALID,0,VALID,97.1071,VALID,0,VALID,20.0374,VALID,11,VALID,0,
2012-06-30, 00:55:04,VALID,916.783,VALID,0,VALID,97.1147,VALID,0,VALID,20.0374,VALID,11,VALID,0,
2012-06-30, 00:56:04,VALID,916.713,VALID,0,VALID,97.1223,VALID,0,VALID,20.0374,VALID,11,VALID,0,
2012-06-30, 00:57:04,VALID,916.707,VALID,0,VALID,97.0842,VALID,0,VALID,19.9984,VALID,11,VALID,0,
2012-06-30, 00:58:04,VALID,916.678,VALID,0,VALID,97.0842,VALID,0,VALID,19.9984,VALID,11,VALID,0,
2012-06-30, 00:59:04,VALID,916.656,VALID,0,VALID,97.0918,VALID,0,VALID,19.9788,VALID,11,VALID,0,
2012-06-30, 01:00:04,VALID,916.674,VALID,0,VALID,97.1223,VALID,0,VALID,19.9788,VALID,11,VALID,0,
2012-06-30, 01:01:04,VALID,916.701,VALID,0,VALID,97.1452,VALID,0,VALID,19.9593,VALID,11,VALID,0,
2012-06-30, 01:02:04,VALID,916.705,VALID,0,VALID,97.1528,VALID,0,VALID,19.9593,VALID,11,VALID,0,
2012-06-30, 01:03:04,VALID,916.744,VALID,0,VALID,97.1757,VALID,0,VALID,19.9788,VALID,11,VALID,0,
2012-06-30, 01:04:04,VALID,916.735,VALID,0,VALID,97.1909,VALID,0,VALID,19.9984,VALID,11,VALID,0,
2012-06-30, 01:05:04,VALID,916.735,VALID,0,VALID,97.1909,VALID,0,VALID,19.9984,VALID,11,VALID,0,
2012-06-30, 01:06:04,VALID,916.753,VALID,0,VALID,97.1909,VALID,0,VALID,19.9984,VALID,11,VALID,0,
2012-06-30, 01:07:04,VALID,916.733,VALID,0,VALID,97.2062,VALID,0,VALID,19.9773,VALID,217,VALID,0,
2012-06-30, 01:08:04,VALID,916.701,VALID,0,VALID,97.1833,VALID,0,VALID,19.9788,VALID,217,VALID,0,
2012-06-30, 01:09:04,VALID,916.686,VALID,0,VALID,97.1986,VALID,0,VALID,20.0194,VALID,217,VALID,0,
2012-06-30, 01:10:04,VALID,916.688,VALID,0,VALID,97.2138,VALID,0,VALID,19.9984,VALID,217,VALID,0,
2012-06-30, 01:11:04,VALID,916.666,VALID,0,VALID,97.229,VALID,0,VALID,20.0179,VALID,225,VALID,0,
2012-06-30, 01:12:04,VALID,916.712,VALID,0,VALID,97.229,VALID,0,VALID,20.0374,VALID,225,VALID,0,
2012-06-30, 01:13:04,VALID,916.68,VALID,0,VALID,97.229,VALID,0,VALID,20.0179,VALID,225,VALID,0,
2012-06-30, 01:14:04,VALID,916.721,VALID,0,VALID,97.2367,VALID,0,VALID,20.0179,VALID,226,VALID,0,
2012-06-30, 01:15:04,VALID,916.71,VALID,0,VALID,97.2214,VALID,0,VALID,20.0179,VALID,225,VALID,0,
2012-06-30, 01:16:04,VALID,916.699,VALID,0,VALID,97.2367,VALID,0,VALID,19.9984,VALID,226,VALID,0,
2012-06-30, 01:17:04,VALID,916.696,VALID,0,VALID,97.2214,VALID,0,VALID,19.9984,VALID,226,VALID,0,
2012-06-30, 01:18:04,VALID,916.719,VALID,0,VALID,97.2214,VALID,0,VALID,19.9999,VALID,216,VALID,0,
2012-06-30, 01:19:04,VALID,916.722,VALID,0,VALID,97.2138,VALID,0,VALID,19.9984,VALID,216,VALID,0,
2012-06-30, 01:20:04,VALID,916.749,VALID,0,VALID,97.2367,VALID,0,VALID,20.0374,VALID,194,VALID,0,
2012-06-30, 01:21:04,VALID,916.759,VALID,0,VALID,97.2443,VALID,0,VALID,20.0374,VALID,194,VALID,0,
2012-06-30, 01:22:04,VALID,916.764,VALID,0,VALID,97.2443,VALID,0,VALID,20.0374,VALID,194,VALID,0,
2012-06-30, 01:23:04,VALID,916.789,VALID,0,VALID,97.2672,VALID,0,VALID,20.0374,VALID,194,VALID,0,
2012-06-30, 01:24:04,VALID,916.77,VALID,0,VALID,97.2519,VALID,0,VALID,20.0569,VALID,194,VALID,0,
2012-06-30, 01:25:04,VALID,916.782,VALID,0,VALID,97.2672,VALID,0,VALID,20.0569,VALID,194,VALID,0,
2012-06-30, 01:26:04,VALID,916.736,VALID,0,VALID,97.2595,VALID,0,VALID,20.0569,VALID,194,VALID,0,
2012-06-30, 01:27:04,VALID,916.724,VALID,0,VALID,97.2367,VALID,0,VALID,20.0764,VALID,194,VALID,0,
2012-06-30, 01:28:04,VALID,916.689,VALID,0,VALID,97.2443,VALID,0,VALID,20.0764,VALID,194,VALID,0,
2012-06-30, 01:29:04,VALID,916.684,VALID,0,VALID,97.2748,VALID,0,VALID,20.0959,VALID,194,VALID,0,
2012-06-30, 01:30:04,VALID,916.662,VALID,0,VALID,97.2595,VALID,0,VALID,20.1154,VALID,194,VALID,0,
2012-06-30, 01:31:04,VALID,916.629,VALID,0,VALID,97.2824,VALID,0,VALID,20.1334,VALID,194,VALID,0,
2012-06-30, 01:32:04,VALID,916.585,VALID,0,VALID,97.2748,VALID,0,VALID,20.1934,VALID,194,VALID,0,
2012-06-30, 01:33:04,VALID,916.59,VALID,0,VALID,97.2824,VALID,0,VALID,20.1739,VALID,194,VALID,0,
2012-06-30, 01:34:04,VALID,916.553,VALID,0,VALID,97.29,VALID,0,VALID,20.1934,VALID,194,VALID,0,
2012-06-30, 01:35:04,VALID,916.554,VALID,0,VALID,97.29,VALID,0,VALID,20.1934,VALID,194,VALID,0,
2012-06-30, 01:36:04,VALID,916.567,VALID,0,VALID,97.2977,VALID,0,VALID,20.2129,VALID,194,VALID,0,
2012-06-30, 01:37:04,VALID,916.556,VALID,0,VALID,97.29,VALID,0,VALID,20.2129,VALID,194,VALID,0,
2012-06-30, 01:38:04,VALID,916.553,VALID,0,VALID,97.29,VALID,0,VALID,20.2324,VALID,194,VALID,0,
2012-06-30, 01:39:04,VALID,916.563,VALID,0,VALID,97.2824,VALID,0,VALID,20.2324,VALID,194,VALID,0,
2012-06-30, 01:40:04,VALID,916.538,VALID,0,VALID,97.2672,VALID,0,VALID,20.2324,VALID,194,VALID,0,
2012-06-30, 01:41:04,VALID,916.55,VALID,0,VALID,97.29,VALID,0,VALID,20.2535,VALID,194,VALID,0,
2012-06-30, 01:42:04,VALID,916.548,VALID,0,VALID,97.2824,VALID,0,VALID,20.2519,VALID,194,VALID,0,
2012-06-30, 01:43:04,VALID,916.54,VALID,0,VALID,97.2672,VALID,0,VALID,20.2519,VALID,194,VALID,0,
2012-06-30, 01:44:04,VALID,916.554,VALID,0,VALID,97.2748,VALID,0,VALID,20.2324,VALID,194,VALID,0,
2012-06-30, 01:45:04,VALID,916.566,VALID,0,VALID,97.2748,VALID,0,VALID,20.2324,VALID,194,VALID,0,
2012-06-30, 01:46:04,VALID,916.529,VALID,0,VALID,97.2748,VALID,0,VALID,20.2519,VALID,194,VALID,0,
2012-06-30, 01:47:04,VALID,916.552,VALID,0,VALID,97.29,VALID,0,VALID,20.2309,VALID,194,VALID,0,
2012-06-30, 01:48:04,VALID,916.531,VALID,0,VALID,97.29,VALID,0,VALID,20.2519,VALID,194,VALID,0,
2012-06-30, 01:49:04,VALID,916.531,VALID,0,VALID,97.2748,VALID,0,VALID,20.2324,VALID,194,VALID,0,
2012-06-30, 01:50:04,VALID,916.514,VALID,0,VALID,97.2748,VALID,0,VALID,20.2324,VALID,194,VALID,0,
2012-06-30, 01:51:04,VALID,916.525,VALID,0,VALID,97.2595,VALID,0,VALID,20.1934,VALID,86,VALID,0,
2012-06-30, 01:52:04,VALID,916.54,VALID,0,VALID,97.2672,VALID,0,VALID,20.1544,VALID,89,VALID,0,
2012-06-30, 01:53:04,VALID,916.543,VALID,0,VALID,97.2595,VALID,0,VALID,20.1349,VALID,66,VALID,0,
2012-06-30, 01:54:04,VALID,916.532,VALID,0,VALID,97.2595,VALID,0,VALID,20.1154,VALID,62,VALID,0,
2012-06-30, 01:55:04,VALID,916.544,VALID,0,VALID,97.2595,VALID,0,VALID,20.0959,VALID,61,VALID,0,
2012-06-30, 01:56:04,VALID,916.504,VALID,0,VALID,97.2443,VALID,0,VALID,20.0959,VALID,61,VALID,0,
2012-06-30, 01:57:04,VALID,916.54,VALID,0,VALID,97.2672,VALID,0,VALID,20.0749,VALID,61,VALID,0,
2012-06-30, 01:58:04,VALID,916.509,VALID,0,VALID,97.2672,VALID,0,VALID,20.0569,VALID,64,VALID,0,
2012-06-30, 01:59:04,VALID,916.498,VALID,0,VALID,97.2748,VALID,0,VALID,20.0764,VALID,64,VALID,0,
2012-06-30, 02:00:04,VALID,916.507,VALID,0,VALID,97.2824,VALID,0,VALID,20.0569,VALID,64,VALID,0,
2012-06-30, 02:01:04,VALID,916.519,VALID,0,VALID,97.29,VALID,0,VALID,20.0553,VALID,74,VALID,0,
2012-06-30, 02:02:04,VALID,916.472,VALID,0,VALID,97.2824,VALID,0,VALID,20.0374,VALID,71,VALID,0,
2012-06-30, 02:03:04,VALID,916.473,VALID,0,VALID,97.3053,VALID,0,VALID,20.0569,VALID,71,VALID,0,
2012-06-30, 02:04:04,VALID,916.472,VALID,0,VALID,97.2977,VALID,0,VALID,20.0374,VALID,71,VALID,0,
2012-06-30, 02:05:04,VALID,916.423,VALID,0,VALID,97.2977,VALID,0,VALID,20.0163,VALID,71,VALID,0,
2012-06-30, 02:06:04,VALID,916.413,VALID,0,VALID,97.3053,VALID,0,VALID,20.0374,VALID,71,VALID,0,
2012-06-30, 02:07:04,VALID,916.388,VALID,0,VALID,97.3205,VALID,0,VALID,20.0374,VALID,71,VALID,0,
2012-06-30, 02:08:04,VALID,916.362,VALID,0,VALID,97.3205,VALID,0,VALID,20.0374,VALID,85,VALID,0,
2012-06-30, 02:09:04,VALID,916.343,VALID,0,VALID,97.3434,VALID,0,VALID,20.0374,VALID,75,VALID,0,
2012-06-30, 02:10:04,VALID,916.329,VALID,0,VALID,97.3281,VALID,0,VALID,20.0374,VALID,79,VALID,0,
2012-06-30, 02:11:04,VALID,916.316,VALID,0,VALID,97.3205,VALID,0,VALID,20.0374,VALID,81,VALID,0,
2012-06-30, 02:12:04,VALID,916.305,VALID,0,VALID,97.3053,VALID,0,VALID,20.0569,VALID,81,VALID,0,
2012-06-30, 02:13:04,VALID,916.322,VALID,0,VALID,97.3205,VALID,0,VALID,20.0374,VALID,81,VALID,0,
2012-06-30, 02:14:04,VALID,916.299,VALID,0,VALID,97.3358,VALID,0,VALID,20.0569,VALID,81,VALID,0,
2012-06-30, 02:15:04,VALID,916.294,VALID,0,VALID,97.3205,VALID,0,VALID,20.0374,VALID,81,VALID,0,
2012-06-30, 02:16:04,VALID,916.267,VALID,0,VALID,97.3205,VALID,0,VALID,20.0374,VALID,81,VALID,0,
2012-06-30, 02:17:04,VALID,916.278,VALID,0,VALID,97.3281,VALID,0,VALID,20.0779,VALID,81,VALID,0,
2012-06-30, 02:18:04,VALID,916.251,VALID,0,VALID,97.3358,VALID,0,VALID,20.0764,VALID,81,VALID,0,
2012-06-30, 02:19:04,VALID,916.245,VALID,0,VALID,97.3358,VALID,0,VALID,20.0764,VALID,81,VALID,0,
2012-06-30, 02:20:04,VALID,916.237,VALID,0,VALID,97.3434,VALID,0,VALID,20.0764,VALID,81,VALID,0,
2012-06-30, 02:21:04,VALID,916.237,VALID,0,VALID,97.3434,VALID,0,VALID,20.0764,VALID,81,VALID,0,
2012-06-30, 02:22:04,VALID,916.188,VALID,0,VALID,97.3434,VALID,0,VALID,20.0764,VALID,81,VALID,0,
2012-06-30, 02:23:04,VALID,916.19,VALID,0,VALID,97.3434,VALID,0,VALID,20.0764,VALID,81,VALID,0,
2012-06-30, 02:24:04,VALID,916.128,VALID,0,VALID,97.3358,VALID,0,VALID,20.0764,VALID,81,VALID,0,
2012-06-30, 02:25:04,VALID,916.143,VALID,0,VALID,97.3205,VALID,0,VALID,20.0764,VALID,81,VALID,0,
2012-06-30, 02:26:04,VALID,916.114,VALID,0,VALID,97.3281,VALID,0,VALID,20.0569,VALID,81,VALID,0,
2012-06-30, 02:27:04,VALID,916.087,VALID,0,VALID,97.3281,VALID,0,VALID,20.0569,VALID,78,VALID,0,
2012-06-30, 02:28:04,VALID,916.075,VALID,0,VALID,97.3205,VALID,0,VALID,20.0569,VALID,61,VALID,0,
2012-06-30, 02:29:04,VALID,916.064,VALID,0,VALID,97.3053,VALID,0,VALID,20.0358,VALID,61,VALID,0,
2012-06-30, 02:30:04,VALID,916.065,VALID,0,VALID,97.3053,VALID,0,VALID,20.0163,VALID,61,VALID,0,
2012-06-30, 02:31:04,VALID,916.047,VALID,0,VALID,97.3129,VALID,0,VALID,19.9968,VALID,15,VALID,0,
2012-06-30, 02:32:04,VALID,916.027,VALID,0,VALID,97.29,VALID,0,VALID,19.9773,VALID,33,VALID,0,
2012-06-30, 02:33:04,VALID,916.021,VALID,0,VALID,97.2824,VALID,0,VALID,19.9788,VALID,33,VALID,0,
2012-06-30, 02:34:04,VALID,916.011,VALID,0,VALID,97.2748,VALID,0,VALID,19.9188,VALID,21,VALID,0,
2012-06-30, 02:35:04,VALID,916.057,VALID,0,VALID,97.2824,VALID,0,VALID,19.9398,VALID,341,VALID,0,
2012-06-30, 02:36:04,VALID,916.04,VALID,0,VALID,97.29,VALID,0,VALID,19.9008,VALID,341,VALID,0,
2012-06-30, 02:37:04,VALID,916.055,VALID,0,VALID,97.3053,VALID,0,VALID,19.8798,VALID,341,VALID,0,
2012-06-30, 02:38:04,VALID,916.039,VALID,0,VALID,97.3053,VALID,0,VALID,19.9008,VALID,341,VALID,0,
2012-06-30, 02:39:04,VALID,916.037,VALID,0,VALID,97.2824,VALID,0,VALID,19.8813,VALID,341,VALID,0,
2012-06-30, 02:40:04,VALID,916.024,VALID,0,VALID,97.3129,VALID,0.107441,VALID,19.8603,VALID,341,VALID,0,
2012-06-30, 02:41:04,VALID,916.056,VALID,0,VALID,97.3205,VALID,0,VALID,19.8813,VALID,341,VALID,0,
2012-06-30, 02:42:04,VALID,916.036,VALID,0,VALID,97.3053,VALID,0,VALID,19.8603,VALID,341,VALID,0,
2012-06-30, 02:43:04,VALID,916.037,VALID,0,VALID,97.3434,VALID,0,VALID,19.8603,VALID,323,VALID,0,
2012-06-30, 02:44:04,VALID,916.015,VALID,0,VALID,97.3434,VALID,0,VALID,19.8603,VALID,333,VALID,0,
2012-06-30, 02:45:04,VALID,915.985,VALID,0,VALID,97.3434,VALID,0,VALID,19.8603,VALID,340,VALID,0,
2012-06-30, 02:46:04,VALID,915.958,VALID,0,VALID,97.3358,VALID,0,VALID,19.8213,VALID,340,VALID,0,
2012-06-30, 02:47:04,VALID,915.949,VALID,0,VALID,97.3281,VALID,0,VALID,19.7823,VALID,341,VALID,0,
2012-06-30, 02:48:04,VALID,915.925,VALID,0,VALID,97.351,VALID,0,VALID,19.7823,VALID,341,VALID,0,
2012-06-30, 02:49:04,VALID,915.915,VALID,0,VALID,97.3281,VALID,0,VALID,19.7823,VALID,1,VALID,0,
2012-06-30, 02:50:04,VALID,915.895,VALID,0,VALID,97.3281,VALID,0,VALID,19.7238,VALID,23,VALID,0,
2012-06-30, 02:51:04,VALID,915.888,VALID,0,VALID,97.3434,VALID,0,VALID,19.7253,VALID,26,VALID,0,
2012-06-30, 02:52:04,VALID,915.884,VALID,0,VALID,97.3358,VALID,0,VALID,19.7043,VALID,26,VALID,0,
2012-06-30, 02:53:04,VALID,915.862,VALID,0,VALID,97.3358,VALID,0.107441,VALID,19.7043,VALID,357,VALID,0,
2012-06-30, 02:54:04,VALID,915.834,VALID,0,VALID,97.3358,VALID,0,VALID,19.7043,VALID,357,VALID,0,
2012-06-30, 02:55:04,VALID,915.812,VALID,0,VALID,97.3358,VALID,0.107441,VALID,19.7043,VALID,357,VALID,0,
2012-06-30, 02:56:04,VALID,915.775,VALID,0,VALID,97.3586,VALID,0,VALID,19.6848,VALID,357,VALID,0,
2012-06-30, 02:57:04,VALID,915.758,VALID,0,VALID,97.3663,VALID,0,VALID,19.6848,VALID,357,VALID,0,
2012-06-30, 02:58:04,VALID,915.761,VALID,0,VALID,97.3281,VALID,0,VALID,19.7073,VALID,357,VALID,0,
2012-06-30, 02:59:04,VALID,915.748,VALID,0,VALID,97.3358,VALID,0,VALID,19.6863,VALID,357,VALID,0,
2012-06-30, 03:00:04,VALID,915.738,VALID,0,VALID,97.3586,VALID,0.107441,VALID,19.6668,VALID,357,VALID,0,
2012-06-30, 03:01:04,VALID,915.712,VALID,0,VALID,97.3358,VALID,0,VALID,19.6263,VALID,158,VALID,0,
2012-06-30, 03:02:04,VALID,915.7,VALID,0,VALID,97.3358,VALID,0,VALID,19.6458,VALID,158,VALID,0,
2012-06-30, 03:03:04,VALID,915.713,VALID,0,VALID,97.351,VALID,0,VALID,19.6263,VALID,158,VALID,0,
2012-06-30, 03:04:04,VALID,915.715,VALID,0,VALID,97.351,VALID,0.107441,VALID,19.6668,VALID,158,VALID,0,
2012-06-30, 03:05:04,VALID,915.712,VALID,0,VALID,97.3586,VALID,0,VALID,19.6668,VALID,158,VALID,0,
2012-06-30, 03:06:04,VALID,915.691,VALID,0,VALID,97.351,VALID,0.107441,VALID,19.6863,VALID,158,VALID,0,
2012-06-30, 03:07:04,VALID,915.692,VALID,0,VALID,97.351,VALID,0.107441,VALID,19.6668,VALID,158,VALID,0,
2012-06-30, 03:08:04,VALID,915.67,VALID,0,VALID,97.3434,VALID,0.107441,VALID,19.6068,VALID,158,VALID,0,
2012-06-30, 03:09:04,VALID,915.708,VALID,0,VALID,97.3358,VALID,0,VALID,19.6263,VALID,158,VALID,0,
2012-06-30, 03:10:04,VALID,915.712,VALID,0,VALID,97.3586,VALID,0,VALID,19.6263,VALID,158,VALID,0,
2012-06-30, 03:11:04,VALID,915.686,VALID,0,VALID,97.3663,VALID,0.107441,VALID,19.6263,VALID,158,VALID,0,
2012-06-30, 03:12:04,VALID,915.673,VALID,0,VALID,97.351,VALID,0,VALID,19.6473,VALID,158,VALID,0,
2012-06-30, 03:13:04,VALID,915.642,VALID,0,VALID,97.351,VALID,0,VALID,19.6458,VALID,158,VALID,0,
2012-06-30, 03:14:04,VALID,915.643,VALID,0,VALID,97.3739,VALID,0,VALID,19.6473,VALID,158,VALID,0,
2012-06-30, 03:15:04,VALID,915.611,VALID,0,VALID,97.351,VALID,0,VALID,19.6473,VALID,158,VALID,0,
2012-06-30, 03:16:04,VALID,915.593,VALID,0,VALID,97.3586,VALID,0,VALID,19.6668,VALID,158,VALID,0,
2012-06-30, 03:17:04,VALID,915.536,VALID,0,VALID,97.3434,VALID,0,VALID,19.6278,VALID,158,VALID,0,
2012-06-30, 03:18:04,VALID,915.497,VALID,0,VALID,97.3586,VALID,0,VALID,19.6668,VALID,158,VALID,0,
2012-06-30, 03:19:04,VALID,915.489,VALID,0,VALID,97.3281,VALID,0,VALID,19.6473,VALID,158,VALID,0,
2012-06-30, 03:20:04,VALID,915.474,VALID,0,VALID,97.3358,VALID,0,VALID,19.6473,VALID,158,VALID,0,
2012-06-30, 03:21:04,VALID,915.46,VALID,0,VALID,97.2977,VALID,0,VALID,19.6083,VALID,158,VALID,0,
2012-06-30, 03:22:04,VALID,915.476,VALID,0,VALID,97.2824,VALID,0,VALID,19.6083,VALID,158,VALID,0,
2012-06-30, 03:23:04,VALID,915.477,VALID,0,VALID,97.2977,VALID,0,VALID,19.6473,VALID,158,VALID,0,
2012-06-30, 03:24:04,VALID,915.493,VALID,0,VALID,97.2824,VALID,0.107441,VALID,19.6668,VALID,158,VALID,0,
2012-06-30, 03:25:04,VALID,915.487,VALID,0,VALID,97.2443,VALID,0,VALID,19.6473,VALID,158,VALID,0,
2012-06-30, 03:26:04,VALID,915.508,VALID,0,VALID,97.2367,VALID,0,VALID,19.6683,VALID,158,VALID,0,
2012-06-30, 03:27:04,VALID,915.487,VALID,0,VALID,97.229,VALID,0,VALID,19.6863,VALID,158,VALID,0,
2012-06-30, 03:28:04,VALID,915.488,VALID,0,VALID,97.229,VALID,0,VALID,19.6863,VALID,158,VALID,0,
2012-06-30, 03:29:04,VALID,915.468,VALID,0,VALID,97.229,VALID,0,VALID,19.7058,VALID,158,VALID,0,
2012-06-30, 03:30:04,VALID,915.454,VALID,0,VALID,97.1909,VALID,0,VALID,19.7253,VALID,158,VALID,0,
2012-06-30, 03:31:04,VALID,915.486,VALID,0,VALID,97.1604,VALID,0,VALID,19.7253,VALID,158,VALID,0,
2012-06-30, 03:32:04,VALID,915.467,VALID,0,VALID,97.1681,VALID,0,VALID,19.7253,VALID,158,VALID,0,
2012-06-30, 03:33:04,VALID,915.429,VALID,0,VALID,97.1528,VALID,0,VALID,19.7238,VALID,158,VALID,0,
2012-06-30, 03:34:04,VALID,915.424,VALID,0,VALID,97.0994,VALID,0,VALID,19.7463,VALID,158,VALID,0,
2012-06-30, 03:35:04,VALID,915.417,VALID,0,VALID,97.0156,VALID,0,VALID,19.6668,VALID,158,VALID,0,
2012-06-30, 03:36:04,VALID,915.401,VALID,0,VALID,96.947,VALID,0,VALID,19.6278,VALID,158,VALID,0,
2012-06-30, 03:37:04,VALID,915.36,VALID,0,VALID,96.947,VALID,0,VALID,19.6098,VALID,158,VALID,0,
2012-06-30, 03:38:04,VALID,915.315,VALID,0,VALID,96.8098,VALID,0,VALID,19.5303,VALID,158,VALID,0,
2012-06-30, 03:39:04,VALID,915.311,VALID,0,VALID,96.8784,VALID,0,VALID,19.4718,VALID,100,VALID,0,
2012-06-30, 03:40:04,VALID,915.279,VALID,0,VALID,96.9851,VALID,0,VALID,19.4523,VALID,100,VALID,0,
2012-06-30, 03:41:04,VALID,915.278,VALID,0,VALID,97.008,VALID,0,VALID,19.4327,VALID,100,VALID,0,
2012-06-30, 03:42:04,VALID,915.248,VALID,0,VALID,97.0918,VALID,0,VALID,19.4132,VALID,100,VALID,0,
2012-06-30, 03:43:04,VALID,915.257,VALID,0,VALID,97.1452,VALID,0,VALID,19.4132,VALID,100,VALID,0,
2012-06-30, 03:44:04,VALID,915.263,VALID,0,VALID,97.1909,VALID,0,VALID,19.4132,VALID,100,VALID,0,
2012-06-30, 03:45:04,VALID,915.264,VALID,0,VALID,97.2062,VALID,0,VALID,19.4327,VALID,100,VALID,0,
2012-06-30, 03:46:04,VALID,915.244,VALID,0,VALID,97.1681,VALID,0,VALID,19.3728,VALID,100,VALID,0,
2012-06-30, 03:47:04,VALID,915.219,VALID,0,VALID,97.1528,VALID,0,VALID,19.3547,VALID,100,VALID,0,
2012-06-30, 03:48:04,VALID,915.194,VALID,0,VALID,97.1909,VALID,0,VALID,19.4147,VALID,100,VALID,0,
2012-06-30, 03:49:04,VALID,915.211,VALID,0,VALID,97.2062,VALID,0,VALID,19.3937,VALID,139,VALID,0,
2012-06-30, 03:50:04,VALID,915.194,VALID,0,VALID,97.1528,VALID,0,VALID,19.3547,VALID,140,VALID,0,
2012-06-30, 03:51:04,VALID,915.188,VALID,0,VALID,97.1223,VALID,0,VALID,19.3157,VALID,137,VALID,0,
2012-06-30, 03:52:04,VALID,915.151,VALID,0,VALID,97.1833,VALID,0,VALID,19.3352,VALID,103,VALID,0,
2012-06-30, 03:53:04,VALID,915.132,VALID,0,VALID,97.2214,VALID,0,VALID,19.3547,VALID,103,VALID,0,
2012-06-30, 03:54:04,VALID,915.096,VALID,0,VALID,97.1681,VALID,0,VALID,19.3157,VALID,103,VALID,0,
2012-06-30, 03:55:04,VALID,915.082,VALID,0,VALID,97.229,VALID,0,VALID,19.3157,VALID,103,VALID,0,
2012-06-30, 03:56:04,VALID,915.051,VALID,0,VALID,97.2367,VALID,0,VALID,19.3157,VALID,103,VALID,0,
2012-06-30, 03:57:04,VALID,915.051,VALID,0,VALID,97.2672,VALID,0,VALID,19.3157,VALID,103,VALID,0,
2012-06-30, 03:58:04,VALID,915.059,VALID,0,VALID,97.2977,VALID,0,VALID,19.3367,VALID,103,VALID,0,
2012-06-30, 03:59:04,VALID,915.09,VALID,0,VALID,97.2595,VALID,0,VALID,19.3172,VALID,156,VALID,0,
2012-06-30, 04:00:04,VALID,915.091,VALID,0,VALID,97.229,VALID,0,VALID,19.2977,VALID,166,VALID,0,